sat.trackr.live / text

‹ back to catalog

2024-199AS

NORAD 61775 · 2024-199AS

PAYLOAD ACTIVE UNKNOWN

§ Identity

Operator
Country
TBD
Launch date
2024-11-04
Launch site
VOSTO
Launch vehicle
Mass (kg)
RCS (m²)

External: N2YO · Heavens-Above · Gunter

§ Orbital elements

Epoch: 2026-05-25T03:27:54.724896Z

Period
93.29 min
Inclination
97.3024°
Eccentricity
0.0014992
Mean motion
15.43582084 rev/d
Perigee alt
425.3 km
Apogee alt
445.8 km
Semi-major
6,813.7 km
B*
3.5639e-4
RAAN
17.3753°
Arg perigee
10.8720°
Mean anomaly
349.2849°
Rev number
13,061

§ Raw data

2024-199AS1 61775U 24199AS  26145.14438339  .00016006  00000+0  35639-3 0  99952 61775  97.3024  17.3753 0014992  10.8720 349.2849 15.43582084130612

JSON: /api/v1/satellites/61775 · /tle

For live sub-satellite position, see the globe view (requires WebGL).

§ Visibility from observer

Set your observer location to see the next 7 days of passes ≥ 10°. The values pass through the URL so the page stays shareable.

No JS? Fill the form by hand. The geolocation button needs JavaScript.